COSMOS 2520

Last updated on Sun Dec 14 2025 00:02:52 GMT+0000 (Coordinated Universal Time)

1 42907U 17046A 25347.21264171 .00000150 00000+0 00000+0 0 9999 2 42907 0.0355 81.3822 0000437 270.6899 211.6414 1.00272735 30533
UTC large
Height (km)
Speed (km/s)
/
Latitude / Longitude
Inclination (degrees)
Orbital Period (minutes)
Azimuth
Elevation
Range (km)
Doppler Factor

Next 0 passes for location: London (51.5072 / 0.1276)

Sorry there are no passes over London.